Tracking 27122 objects as of 26-Mar-2023
HD Live streaming from Space Station
objects crossing your sky now

EDUSAT

Track EDUSAT now!
10-day predictions
EDUSAT is classified as:


NORAD ID: 37788
Int'l Code: 2011-044A
Perigee: 636.2 km
Apogee: 687.1 km
Inclination: 98.4 °
Period: 97.8 minutes
Semi major axis: 7032 km
RCS: 0.1421 m2 (medium)
Launch date: August 17, 2011
Source: Italy (IT)
Launch site: Orenburg, Russia (OREN)

EduSat is a microsatellite built by the University of Rome.
Your satellite tracking list
Your tracking list is empty




NASA's NSSDC Master Catalog

Two Line Element Set (TLE):
1 37788U 11044A   23084.90342692  .00002387  00000-0  38471-3 0  9991
2 37788  98.4187 291.9049 0036209 268.3861 149.5389 14.72058976622761
Source of the keplerian elements: AFSPC